Weather History for Perryton, TX

Change the Weather History Date:

Sunday, January 20, 2013

  Actual Average Record
Temperature  
Mean Temperature 42 °F -  
Max Temperature 62 °F 44 °F 76 °F (1986)
Min Temperature 23 °F 19 °F -11 °F (1984)
Degree Days  
Heating Degree Days 22    
Moisture  
Dew Point 24 °F    
Average Humidity 58    
Maximum Humidity 87    
Minimum Humidity 19    
Precipitation  
Precipitation 0.00 in - - ()
Sea Level Pressure  
Sea Level Pressure 30.18 in    
Wind  
Wind Speed 8 mph (WSW)    
Max Wind Speed 22 mph    
Max Gust Speed 28 mph    
Visibility 10 miles    
Events      
Averages and records for this station are not official NWS values.
T = Trace of Precipitation, MM = Missing Value Source: NWS Daily Summary

Daily Weather History Graph

Daily Weather History Graph

Search for Another Location

Airport:

Trip Planner

Search our weather history database for the weather conditions in past years. The results will help you decide how hot, cold, wet, or windy it might be!

Date:

Astronomy

Jan. 20, 2013 Rise Set
Actual Time 7:51 AM CST 5:56 PM CST
Civil Twilight 7:24 AM CST 6:24 PM CST
Nautical Twilight 6:52 AM CST 6:56 PM CST
Astronomical Twilight 6:21 AM CST 7:26 PM CST
Moon 12:58 PM CST (1/20) 2:26 AM CST (1/20)
Length of Visible Light 11h 00m
Length of Day
10h 04m
Waxing Gibbous, 66% of the Moon is Illuminated
Jan 20
Waxing Gibbous
Jan 26
Full
Feb 3
Last Quarter
Feb 10
New
Feb 17
First Quarter

Hourly Weather History & Observations

Time (CST) Temp. Windchill Dew Point Humidity Pressure Visibility Wind Dir Wind Speed Gust Speed Precip Events Conditions
12:15 AM 32.0 °F - 19.4 °F 60% 30.25 in 10.0 mi Calm Calm - N/A   Clear
12:35 AM 30.2 °F 24.3 °F 19.4 °F 64% 30.25 in 10.0 mi SSW 5.8 mph - N/A   Clear
12:55 AM 30.2 °F 22.6 °F 21.2 °F 69% 30.24 in 10.0 mi WSW 8.1 mph - N/A   Clear
1:15 AM 30.2 °F 24.3 °F 21.2 °F 69% 30.24 in 10.0 mi WSW 5.8 mph - N/A   Clear
1:35 AM 30.2 °F 24.3 °F 21.2 °F 69% 30.24 in 10.0 mi WSW 5.8 mph - N/A   Clear
1:55 AM 30.2 °F 26.7 °F 21.2 °F 69% 30.24 in 10.0 mi WSW 3.5 mph - N/A   Clear
2:15 AM 30.2 °F 25.4 °F 21.2 °F 69% 30.24 in 10.0 mi WSW 4.6 mph - N/A   Clear
2:35 AM 32.0 °F 25.6 °F 21.2 °F 64% 30.24 in 10.0 mi SW 6.9 mph - N/A   Clear
2:55 AM 32.0 °F 27.5 °F 21.2 °F 64% 30.24 in 10.0 mi SW 4.6 mph - N/A   Clear
3:15 AM 30.2 °F 24.3 °F 21.2 °F 69% 30.23 in 10.0 mi SSW 5.8 mph - N/A   Clear
3:35 AM 28.4 °F 20.4 °F 21.2 °F 74% 30.23 in 10.0 mi WSW 8.1 mph - N/A   Clear
3:55 AM 28.4 °F 19.7 °F 21.2 °F 74% 30.22 in 10.0 mi SW 9.2 mph - N/A   Clear
4:15 AM 28.4 °F 22.2 °F 21.2 °F 74% 30.22 in 10.0 mi SW 5.8 mph - N/A   Clear
4:35 AM 30.2 °F 25.4 °F 21.2 °F 69% 30.21 in 10.0 mi SW 4.6 mph - N/A   Clear
4:55 AM 30.2 °F 26.7 °F 21.2 °F 69% 30.21 in 10.0 mi WNW 3.5 mph - N/A   Clear
5:15 AM 28.4 °F 22.2 °F 21.2 °F 74% 30.19 in 10.0 mi SW 5.8 mph - N/A   Clear
5:35 AM 26.6 °F 18.2 °F 19.4 °F 74% 30.19 in 10.0 mi SW 8.1 mph - N/A   Clear
5:55 AM 26.6 °F 19.1 °F 19.4 °F 74% 30.18 in 10.0 mi SSW 6.9 mph - N/A   Clear
6:15 AM 24.8 °F 14.6 °F 19.4 °F 80% 30.17 in 10.0 mi SSW 10.4 mph - N/A   Clear
6:35 AM 24.8 °F 16.1 °F 19.4 °F 80% 30.17 in 10.0 mi SSW 8.1 mph - N/A   Clear
6:55 AM 26.6 °F 19.1 °F 19.4 °F 74% 30.17 in 10.0 mi SSW 6.9 mph - N/A   Clear
7:15 AM 24.8 °F 17.9 °F 19.4 °F 80% 30.17 in 10.0 mi South 5.8 mph - N/A   Clear
7:35 AM 23.0 °F 14.7 °F 19.4 °F 86% 30.17 in 10.0 mi South 6.9 mph - N/A   Clear
7:55 AM 24.8 °F 16.1 °F 19.4 °F 80% 30.17 in 10.0 mi SSW 8.1 mph - N/A   Clear
8:15 AM 28.4 °F 19.7 °F 23.0 °F 80% 30.17 in 10.0 mi SW 9.2 mph - N/A   Clear
8:35 AM 32.0 °F 24.2 °F 24.8 °F 75% 30.16 in 10.0 mi SSW 9.2 mph - N/A   Clear
8:55 AM 33.8 °F 27.7 °F 26.6 °F 75% 30.16 in 10.0 mi SSW 6.9 mph - N/A   Clear
9:15 AM 37.4 °F 30.3 °F 26.6 °F 65% 30.16 in 10.0 mi SSW 10.4 mph - N/A   Clear
9:35 AM 41.0 °F 34.7 °F 26.6 °F 57% 30.17 in 10.0 mi SSW 10.4 mph - N/A   Clear
9:55 AM 42.8 °F 37.0 °F 26.6 °F 53% 30.17 in 10.0 mi SSW 10.4 mph 18.4 mph N/A   Clear
10:15 AM 44.6 °F 38.8 °F 26.6 °F 49% 30.17 in 10.0 mi SSW 11.5 mph - N/A   Clear
10:35 AM 46.4 °F 41.5 °F 28.4 °F 50% 30.17 in 10.0 mi SSW 10.4 mph - N/A   Clear
10:55 AM 50.0 °F - 26.6 °F 40% 30.17 in 10.0 mi South 15.0 mph - N/A   Clear
11:15 AM 50.0 °F - 26.6 °F 40% 30.16 in 10.0 mi South 16.1 mph - N/A   Clear
11:35 AM 51.8 °F - 26.6 °F 38% 30.16 in 10.0 mi South 16.1 mph - N/A   Clear
11:55 AM 53.6 °F - 26.6 °F 35% 30.15 in 10.0 mi South 13.8 mph 17.3 mph N/A   Clear
12:15 PM 53.6 °F - 26.6 °F 35% 30.14 in 10.0 mi South 15.0 mph 18.4 mph N/A   Clear
12:35 PM 55.4 °F - 26.6 °F 33% 30.12 in 10.0 mi South 15.0 mph - N/A   Clear
12:55 PM 57.2 °F - 26.6 °F 31% 30.10 in 10.0 mi SSW 12.7 mph - N/A   Clear
1:15 PM 59.0 °F - 26.6 °F 29% 30.10 in 10.0 mi SW 11.5 mph 17.3 mph N/A   Clear
1:55 PM 59.0 °F - 24.8 °F 27% 30.08 in 10.0 mi WSW 10.4 mph 17.3 mph N/A   Clear
2:15 PM 60.8 °F - 21.2 °F 22% 30.07 in 10.0 mi WSW 6.9 mph 17.3 mph N/A   Clear
2:35 PM 62.6 °F - 21.2 °F 20% 30.07 in 10.0 mi West 9.2 mph - N/A   Clear
2:55 PM 60.8 °F - 19.4 °F 20% 30.06 in 10.0 mi WNW 10.4 mph - N/A   Clear
3:15 PM 60.8 °F - 17.6 °F 19% 30.07 in 10.0 mi NW 10.4 mph - N/A   Clear
3:35 PM 60.8 °F - 19.4 °F 20% 30.07 in 10.0 mi NNW 12.7 mph 18.4 mph N/A   Clear
3:55 PM 60.8 °F - 19.4 °F 20% 30.08 in 10.0 mi North 16.1 mph 19.6 mph N/A   Clear
4:15 PM 59.0 °F - 19.4 °F 22% 30.09 in 10.0 mi North 15.0 mph - N/A   Clear
4:35 PM 59.0 °F - 21.2 °F 23% 30.10 in 10.0 mi North 20.7 mph 25.3 mph N/A   Clear
4:55 PM 55.4 °F - 23.0 °F 29% 30.10 in 10.0 mi North 17.3 mph 27.6 mph N/A   Clear
5:15 PM 53.6 °F - 23.0 °F 30% 30.11 in 10.0 mi North 17.3 mph 23.0 mph N/A   Clear
5:35 PM 51.8 °F - 23.0 °F 33% 30.12 in 10.0 mi North 13.8 mph 19.6 mph N/A   Clear
5:55 PM 50.0 °F - 23.0 °F 35% 30.14 in 10.0 mi NNE 9.2 mph - N/A   Clear
6:15 PM 46.4 °F 41.5 °F 26.6 °F 46% 30.15 in 10.0 mi NNE 10.4 mph - N/A   Clear
6:35 PM 46.4 °F 40.7 °F 28.4 °F 50% 30.16 in 10.0 mi NNE 12.7 mph - N/A   Clear
6:55 PM 44.6 °F 39.2 °F 28.4 °F 53% 30.17 in 10.0 mi NE 10.4 mph - N/A   Clear
7:15 PM 41.0 °F 35.8 °F 28.4 °F 61% 30.18 in 10.0 mi NE 8.1 mph - N/A   Clear
7:35 PM 37.4 °F 29.8 °F 26.6 °F 65% 30.19 in 10.0 mi NNE 11.5 mph - N/A   Clear
7:55 PM 37.4 °F 29.8 °F 26.6 °F 65% 30.19 in 10.0 mi North 11.5 mph - N/A   Clear
8:15 PM 35.6 °F 26.6 °F 26.6 °F 70% 30.20 in 10.0 mi North 13.8 mph - N/A   Clear
8:35 PM 37.4 °F 29.8 °F 26.6 °F 65% 30.21 in 10.0 mi North 11.5 mph - N/A   Clear
8:55 PM 35.6 °F 27.1 °F 26.6 °F 70% 30.22 in 10.0 mi NNE 12.7 mph - N/A   Clear
9:15 PM 35.6 °F 25.9 °F 28.4 °F 75% 30.23 in 10.0 mi NNE 16.1 mph 20.7 mph N/A   Clear
9:35 PM 35.6 °F 24.2 °F 30.2 °F 81% 30.24 in 10.0 mi NNE 21.9 mph 26.5 mph N/A   Clear
9:55 PM 33.8 °F 23.2 °F 28.4 °F 81% 30.25 in 10.0 mi NNE 17.3 mph 24.2 mph N/A   Clear
10:15 PM 32.0 °F 20.8 °F 28.4 °F 87% 30.27 in 10.0 mi NNE 17.3 mph 20.7 mph N/A   Clear
10:35 PM 32.0 °F 20.8 °F 26.6 °F 80% 30.28 in 10.0 mi NE 17.3 mph 23.0 mph N/A   Clear
10:55 PM 30.2 °F 18.9 °F 24.8 °F 80% 30.29 in 10.0 mi NE 16.1 mph - N/A   Clear
11:15 PM 30.2 °F 20.2 °F 24.8 °F 80% 30.30 in 10.0 mi NE 12.7 mph - N/A   Clear
11:35 PM 28.4 °F 18.0 °F 23.0 °F 80% 30.31 in 10.0 mi NE 12.7 mph 19.6 mph N/A   Clear
11:55 PM 28.4 °F 18.5 °F 23.0 °F 80% 30.31 in 10.0 mi NE 11.5 mph - N/A   Clear